Weather History for Hebron, NE

Change the Weather History Date:

Wednesday, April 25, 2012

  Actual Average Record
Temperature  
Mean Temperature 73 °F -  
Max Temperature 93 °F 70 °F 98 °F (1989)
Min Temperature 53 °F 43 °F 30 °F (2013)
Cooling Degree Days 8    
Growing Degree Days 23 (Base 50)    
Moisture  
Dew Point 45 °F    
Average Humidity 43    
Maximum Humidity 89    
Minimum Humidity 15    
Precipitation  
Precipitation 0.00 in - - ()
Sea Level Pressure  
Sea Level Pressure 29.65 in    
Wind  
Wind Speed 6 mph (NNW)    
Max Wind Speed 17 mph    
Max Gust Speed 26 mph    
Visibility 10 miles    
Events      
Averages and records for this station are not official NWS values.
T = Trace of Precipitation, MM = Missing Value Source: NWS Daily Summary

Daily Weather History Graph

Daily Weather History Graph

Search for Another Location

Airport:

Trip Planner

Search our weather history database for the weather conditions in past years. The results will help you decide how hot, cold, wet, or windy it might be!

Date:

Astronomy

Apr. 25, 2012 Rise Set
Actual Time 6:37 AM CDT 8:19 PM CDT
Civil Twilight 6:08 AM CDT 8:48 PM CDT
Nautical Twilight 5:33 AM CDT 9:23 PM CDT
Astronomical Twilight 4:56 AM CDT 10:01 PM CDT
Moon 9:23 AM CDT (4/25) No Moon Set
Length of Visible Light 14h 40m
Length of Day
13h 42m
Waxing Crescent, 17% of the Moon is Illuminated
Apr 25
Waxing Crescent
Apr 29
First Quarter
May 5
Full
May 12
Last Quarter
May 20
New

Hourly Weather History & Observations

Time (CDT) Temp. Dew Point Humidity Pressure Visibility Wind Dir Wind Speed Gust Speed Precip Events Conditions
12:15 AM 67.6 °F 51.4 °F 56% 29.55 in 10.0 mi ESE 3.5 mph - N/A   Clear
12:35 AM 65.5 °F 51.8 °F 61% 29.55 in 10.0 mi Calm Calm - N/A   Clear
12:55 AM 63.7 °F 51.8 °F 65% 29.54 in 10.0 mi Calm Calm - N/A   Clear
1:15 AM 62.8 °F 52.3 °F 69% 29.55 in 10.0 mi Calm Calm - N/A   Clear
1:35 AM 63.0 °F 53.6 °F 71% 29.55 in 10.0 mi Calm Calm - N/A   Clear
1:55 AM 61.2 °F 53.4 °F 76% 29.54 in 10.0 mi Calm Calm - N/A   Clear
2:15 AM 59.4 °F 52.9 °F 79% 29.54 in 10.0 mi West 3.5 mph - N/A   Clear
2:35 AM 60.3 °F 53.1 °F 77% 29.53 in 10.0 mi Calm Calm - N/A   Clear
2:55 AM 59.7 °F 52.7 °F 78% 29.53 in 10.0 mi Calm Calm - N/A   Clear
3:15 AM 59.0 °F 52.5 °F 79% 29.53 in 10.0 mi ESE 3.5 mph - N/A   Clear
3:35 AM 57.2 °F 51.8 °F 82% 29.53 in 10.0 mi Calm Calm - N/A   Clear
3:55 AM 57.6 °F 51.8 °F 81% 29.53 in 10.0 mi Calm Calm - N/A   Clear
4:15 AM 55.8 °F 51.4 °F 85% 29.52 in 10.0 mi Calm Calm - N/A   Clear
4:35 AM 54.9 °F 51.6 °F 89% 29.53 in 10.0 mi Calm Calm - N/A   Clear
4:55 AM 53.8 °F 50.7 °F 89% 29.52 in 10.0 mi Calm Calm - N/A   Clear
5:35 AM 54.0 °F 50.5 °F 88% 29.54 in 10.0 mi Calm Calm - N/A   Clear
5:55 AM 53.8 °F 50.4 °F 88% 29.56 in 10.0 mi West 3.5 mph - N/A   Clear
6:15 AM 53.2 °F 48.9 °F 85% 29.56 in 10.0 mi West 4.6 mph - N/A   Clear
6:35 AM 55.8 °F 47.8 °F 75% 29.55 in 10.0 mi West 4.6 mph - N/A   Clear
7:15 AM 60.3 °F 47.1 °F 62% 29.57 in 10.0 mi West 5.8 mph - N/A   Clear
7:35 AM 61.0 °F 47.8 °F 62% 29.57 in 10.0 mi West 6.9 mph - N/A   Clear
7:55 AM 64.2 °F 49.6 °F 59% 29.59 in 10.0 mi NW 3.5 mph - N/A   Clear
8:15 AM 66.4 °F 47.5 °F 51% 29.60 in 10.0 mi NNW 13.8 mph 23.0 mph N/A   Clear
8:35 AM 67.1 °F 48.4 °F 51% 29.60 in 10.0 mi NNW 10.4 mph - N/A   Clear
8:55 AM 68.9 °F 50.0 °F 51% 29.60 in 10.0 mi North 4.6 mph - N/A   Clear
9:15 AM 72.0 °F 52.0 °F 49% 29.61 in 10.0 mi NNW 8.1 mph - N/A   Clear
9:35 AM 74.3 °F 52.5 °F 46% 29.63 in 10.0 mi NNW 6.9 mph - N/A   Clear
9:55 AM 76.3 °F 51.4 °F 42% 29.62 in 10.0 mi NNW 9.2 mph - N/A   Clear
10:15 AM 79.5 °F 50.5 °F 36% 29.63 in 10.0 mi NNW 10.4 mph - N/A   Clear
10:35 AM 81.5 °F 47.5 °F 30% 29.63 in 10.0 mi North 11.5 mph - N/A   Clear
10:55 AM 84.0 °F 45.5 °F 26% 29.64 in 10.0 mi NNW 11.5 mph 18.4 mph N/A   Clear
11:15 AM 85.3 °F 44.2 °F 24% 29.63 in 10.0 mi North 16.1 mph 19.6 mph N/A   Clear
11:35 AM 86.5 °F 44.8 °F 23% 29.64 in 10.0 mi NNW 11.5 mph 19.6 mph N/A   Clear
11:55 AM 87.6 °F 44.8 °F 22% 29.64 in 10.0 mi North 10.4 mph 21.9 mph N/A   Clear
12:15 PM 88.7 °F 42.6 °F 20% 29.65 in 10.0 mi North 12.7 mph 19.6 mph N/A   Clear
12:35 PM 89.6 °F 42.1 °F 19% 29.65 in 10.0 mi North 12.7 mph 20.7 mph N/A   Clear
12:55 PM 90.7 °F 40.8 °F 17% 29.65 in 10.0 mi NNW 12.7 mph 20.7 mph N/A   Clear
1:15 PM 90.9 °F 39.2 °F 16% 29.64 in 10.0 mi NNW 16.1 mph 21.9 mph N/A   Clear
1:35 PM 91.4 °F 39.9 °F 17% 29.64 in 10.0 mi North 16.1 mph 19.6 mph N/A   Clear
2:15 PM 92.5 °F 39.7 °F 16% 29.65 in 10.0 mi North 12.7 mph 20.7 mph N/A   Clear
2:35 PM 92.7 °F 38.7 °F 15% 29.66 in 10.0 mi NNW 13.8 mph 21.9 mph N/A   Clear
2:55 PM 93.0 °F 39.4 °F 15% 29.66 in 10.0 mi North 15.0 mph 20.7 mph N/A   Clear
3:15 PM 92.1 °F 39.4 °F 16% 29.66 in 10.0 mi NW 11.5 mph 23.0 mph N/A   Clear
3:35 PM 92.8 °F 40.8 °F 16% 29.66 in 10.0 mi North 13.8 mph 21.9 mph N/A   Clear
3:55 PM 92.3 °F 41.2 °F 17% 29.66 in 10.0 mi North 17.3 mph 25.3 mph N/A   Clear
4:15 PM 91.4 °F 41.7 °F 18% 29.67 in 10.0 mi North 16.1 mph 26.5 mph N/A   Clear
4:35 PM 90.0 °F 42.1 °F 19% 29.68 in 10.0 mi North 15.0 mph 23.0 mph N/A   Clear
4:55 PM 90.5 °F 42.6 °F 19% 29.69 in 10.0 mi North 16.1 mph 24.2 mph N/A   Clear
5:15 PM 90.0 °F 41.9 °F 19% 29.69 in 10.0 mi North 17.3 mph 24.2 mph N/A   Clear
5:35 PM 89.6 °F 39.7 °F 17% 29.70 in 10.0 mi North 15.0 mph 24.2 mph N/A   Clear
5:55 PM 88.7 °F 40.5 °F 18% 29.71 in 10.0 mi North 12.7 mph 23.0 mph N/A   Clear
6:15 PM 87.6 °F 40.5 °F 19% 29.71 in 10.0 mi North 16.1 mph 21.9 mph N/A   Clear
6:35 PM 86.7 °F 39.7 °F 19% 29.72 in 10.0 mi North 13.8 mph 21.9 mph N/A   Clear
6:55 PM 85.8 °F 37.9 °F 18% 29.73 in 10.0 mi North 12.7 mph 20.7 mph N/A   Clear
7:15 PM 84.4 °F 37.8 °F 19% 29.74 in 10.0 mi North 11.5 mph 17.3 mph N/A   Clear
7:35 PM 83.3 °F 35.6 °F 18% 29.75 in 10.0 mi North 10.4 mph 17.3 mph N/A   Clear
7:55 PM 81.7 °F 34.2 °F 18% 29.75 in 10.0 mi NNW 8.1 mph - N/A   Clear
8:15 PM 79.7 °F 34.5 °F 20% 29.76 in 10.0 mi NNW 6.9 mph - N/A   Clear
8:35 PM 77.2 °F 36.0 °F 22% 29.77 in 10.0 mi North 4.6 mph - N/A   Clear
8:55 PM 75.6 °F 37.2 °F 25% 29.78 in 10.0 mi North 4.6 mph - N/A   Clear
9:15 PM 74.1 °F 38.7 °F 28% 29.80 in 10.0 mi NNW 4.6 mph - N/A   Clear
9:35 PM 72.1 °F 39.4 °F 30% 29.81 in 10.0 mi NNW 4.6 mph - N/A   Clear
9:55 PM 71.2 °F 40.1 °F 32% 29.81 in 10.0 mi NNW 4.6 mph - N/A   Clear
10:15 PM 68.9 °F 41.2 °F 36% 29.82 in 10.0 mi NNW 4.6 mph - N/A   Clear
10:35 PM 66.4 °F 42.8 °F 42% 29.83 in 10.0 mi Calm Calm - N/A   Clear
10:55 PM 63.5 °F 44.4 °F 50% 29.83 in 10.0 mi Calm Calm - N/A   Clear
11:15 PM 61.9 °F 43.9 °F 52% 29.83 in 10.0 mi Calm Calm - N/A   Clear
11:35 PM 62.6 °F 43.5 °F 50% 29.83 in 10.0 mi West 3.5 mph - N/A   Clear
11:55 PM 61.7 °F 43.9 °F 52% 29.84 in 10.0 mi Calm Calm - N/A   Clear